Lapse_Rate
7.3 7.3 8.1 7.6 7.4 7.8 7.7 7.5 7.8 8.2 8.5 8.4 9.1 9.2 9.2 9.0 8.5 8.7 8.7 8.1 7.9 7.5 7.6 7.4 6.7 5.5 6.4 6.7 6.8 6.4 6.3 6.4 6.9 6.8 6.9 6.8 6.3 5.9 5.7 5.7 6.0 6.1 6.1 5.7
7.0 7.9 7.8 7.5 7.4 7.5 7.7 7.8 7.9 8.3 8.7 8.4 9.0 9.1 8.6 8.7 8.8 8.8 8.7 8.6 7.9 7.7 7.3 7.6 5.8 6.1 6.6 6.8 6.2 6.5 6.4 6.7 7.0 7.0 6.9 6.7 6.5 6.1 5.8 5.7 5.6 5.4 5.4 5.4
7.1 8.0 7.6 7.4 7.6 7.7 8.0 8.0 8.3 8.6 8.9 8.8 8.8 8.9 8.8 8.6 8.8 8.6 8.2 8.4 8.3 8.3 7.8 8.0 7.0 6.3 7.5 7.0 5.8 6.2 6.3 6.4 6.7 6.9 6.8 6.5 6.2 5.7 5.5 5.5 5.5 5.3 5.2 5.2
7.0 8.0 7.8 7.7 7.6 7.8 7.9 8.4 8.4 8.4 8.6 8.6 8.4 8.5 9.3 8.8 8.5 8.4 8.2 8.6 8.3 8.4 7.6 7.6 6.9 6.4 7.1 6.8 6.8 6.0 6.3 6.6 6.7 7.0 6.9 6.6 6.3 5.5 5.1 5.2 5.4 5.2 5.2 5.2
7.6 7.7 7.6 7.5 7.9 8.0 8.1 8.5 8.6 8.6 8.5 8.5 8.9 9.0 9.0 8.9 8.3 8.9 8.4 8.2 8.6 8.6 7.8 7.4 6.9 6.6 6.6 6.8 6.4 6.3 6.3 6.5 6.7 6.9 6.9 6.6 6.3 5.7 5.2 5.2 5.3 5.3 5.3 5.1
7.4 7.7 7.4 7.7 7.9 8.0 8.4 8.5 8.6 8.6 8.5 8.1 9.4 8.9 9.1 8.8 8.8 8.6 8.3 8.0 8.7 8.5 7.8 7.4 6.9 7.1 7.1 6.8 6.5 6.6 6.7 6.5 6.5 6.6 6.6 6.6 6.0 5.2 5.3 5.6 5.5 5.5 5.5 5.5
7.6 7.6 7.9 7.8 7.9 8.1 8.5 8.6 8.3 7.5 7.1 7.1 9.1 8.6 8.8 8.7 8.6 8.6 7.8 8.2 8.8 8.3 7.7 7.4 7.3 7.2 7.1 6.9 6.7 6.8 6.7 6.3 6.3 6.4 6.5 6.5 6.3 5.5 5.4 5.5 5.6 5.6 5.5 5.5
7.3 7.5 8.3 8.5 8.5 8.6 8.8 8.7 8.5 6.8 6.4 7.3 8.8 8.4 8.3 8.4 8.5 8.1 8.4 8.6 8.3 7.9 7.8 7.8 7.5 7.4 7.2 7.2 6.9 6.7 6.5 6.3 6.4 6.6 6.5 6.4 6.0 5.5 5.4 5.6 5.8 5.7 5.5 5.5
7.6 7.8 8.5 8.3 8.6 8.6 9.1 8.9 9.0 8.7 8.2 7.6 8.3 7.6 8.0 8.2 8.7 8.9 8.5 8.5 8.7 7.8 7.8 7.4 7.5 7.5 7.1 6.9 6.8 6.5 6.3 6.4 6.5 6.9 6.8 6.3 6.3 5.6 5.3 5.4 5.7 5.6 5.6 5.7
8.0 7.9 8.7 8.7 8.2 8.5 8.4 9.4 9.1 8.6 7.5 7.1 7.8 8.0 8.4 8.2 8.7 8.3 7.1 6.5 6.6 6.9 7.5 7.8 7.8 7.5 7.0 6.9 6.7 6.6 6.3 6.4 6.6 6.7 6.7 6.3 6.3 6.0 5.8 5.6 5.4 5.3 5.3 5.5
8.4 8.2 8.7 8.5 8.6 8.6 9.0 9.2 9.2 9.3 8.9 6.9 6.4 8.2 8.7 8.8 8.5 8.2 7.8 7.1 7.1 7.8 7.0 6.9 7.9 7.5 6.6 6.5 6.5 6.8 6.5 6.2 6.5 6.5 6.5 6.2 6.1 6.2 6.1 5.8 5.7 5.7 5.3 5.4
8.9 8.8 8.4 8.5 9.2 9.0 8.9 9.1 9.5 9.4 9.0 8.6 8.8 8.5 8.9 8.8 8.4 8.1 8.2 7.8 7.7 7.7 7.9 7.2 7.1 7.7 7.1 6.8 6.7 6.6 6.7 7.1 6.7 6.7 6.6 6.3 6.1 6.3 6.3 6.1 6.0 5.7 5.7 5.4
9.2 8.7 8.6 8.7 9.0 9.1 9.3 9.4 9.2 9.4 9.0 9.0 8.3 9.0 8.8 8.4 8.3 8.2 7.9 8.1 7.8 7.5 8.1 7.2 7.5 7.3 7.1 7.0 7.0 6.6 6.8 6.8 6.5 6.5 6.5 6.1 6.0 6.0 6.3 6.3 6.5 6.4 5.8 5.7
9.1 9.1 8.9 8.3 8.9 9.1 9.3 9.3 9.3 9.4 9.2 9.1 9.3 9.4 9.3 8.9 8.2 8.0 8.4 7.8 7.1 6.7 6.9 7.4 7.6 6.6 7.1 7.2 7.2 7.2 6.8 6.6 6.6 6.6 6.7 6.4 6.0 5.8 6.1 6.2 6.3 6.5 6.2 5.7
8.7 9.1 9.0 8.9 8.6 8.7 9.1 9.2 9.1 8.9 9.3 9.2 9.3 9.6 9.5 9.1 8.5 8.4 8.2 7.8 8.0 7.4 7.1 7.1 7.0 6.6 6.9 6.5 6.8 7.4 6.9 6.7 6.7 6.7 6.6 6.3 6.2 6.0 5.9 6.0 6.0 6.0 6.1 5.7
8.5 8.2 8.7 8.9 9.0 8.8 9.0 9.2 9.2 9.1 9.2 9.5 9.3 9.5 9.5 8.8 8.5 8.5 8.2 8.0 7.8 7.5 7.2 6.9 6.7 6.5 6.4 6.6 6.7 6.8 6.9 6.9 6.7 6.8 6.5 6.2 6.0 5.9 5.9 5.6 5.7 5.5 5.6 5.7
8.2 8.3 8.1 8.1 8.4 8.5 8.7 9.1 9.1 8.8 8.8 9.1 9.4 9.4 9.2 8.8 8.5 8.4 8.2 7.9 7.6 7.5 7.0 6.7 6.8 7.0 6.8 6.4 6.7 6.6 6.7 6.5 6.3 6.1 6.2 5.9 5.8 5.7 5.8 5.2 5.1 5.4 5.2 5.4
8.0 8.1 8.2 8.0 8.1 7.3 8.5 9.0 8.8 8.8 8.9 8.9 9.0 9.4 9.1 8.5 8.2 7.9 7.7 7.8 7.8 7.7 7.8 7.3 7.1 6.9 6.6 6.4 6.6 6.5 6.3 6.2 6.1 5.9 5.7 5.3 5.3 5.2 5.3 4.8 4.8 5.0 4.9 5.0
8.0 7.8 7.8 8.0 8.0 7.7 7.9 8.3 8.6 8.7 8.6 8.6 8.7 8.8 8.6 8.5 8.0 7.5 7.6 7.7 7.5 7.4 7.4 7.5 7.1 7.0 6.7 6.8 6.6 6.3 6.2 5.8 5.8 5.7 5.6 5.5 5.2 4.8 4.9 4.7 4.6 4.4 4.5 4.7
7.7 7.5 7.4 7.4 7.3 6.8 7.8 8.0 8.4 8.6 8.1 8.4 8.6 8.6 8.4 8.3 8.2 8.2 8.4 7.9 7.8 7.3 7.5 7.4 7.1 7.2 7.1 6.9 6.8 6.3 6.1 6.0 6.0 5.8 5.7 5.5 4.8 4.7 4.5 4.4 4.3 4.4 4.4 4.4
7.6 7.7 7.4 7.4 7.5 7.4 7.5 8.1 8.3 8.2 8.3 8.5 8.5 8.3 8.4 8.4 8.5 8.4 8.3 8.0 7.5 7.4 7.3 7.4 7.5 7.2 6.9 6.8 6.5 6.4 6.3 6.3 5.9 5.9 5.8 5.5 4.8 4.2 4.7 4.2 4.5 4.5 4.4 4.5
7.5 7.3 7.5 7.5 7.4 7.2 7.3 7.9 8.0 7.8 7.8 8.1 8.2 8.1 8.1 8.3 8.0 7.8 7.6 7.6 7.4 7.5 7.4 7.3 7.1 6.9 6.9 6.7 6.3 6.2 6.3 6.4 6.5 6.2 5.5 4.9 4.7 4.5 4.6 4.5 4.3 4.5 4.4 4.4
7.1 6.9 7.4 7.2 6.6 6.2 6.9 7.2 7.3 7.2 7.2 7.3 7.5 7.3 7.9 7.7 7.7 7.5 7.3 7.3 7.2 7.2 7.2 7.2 7.0 6.8 6.4 6.2 6.1 6.1 6.2 6.2 6.1 5.8 4.8 4.7 4.8 5.1 4.8 4.7 4.6 4.3 4.2 4.2
6.8 6.9 7.0 6.8 5.9 5.7 5.9 6.4 6.6 6.7 7.1 7.2 7.1 7.0 5.9 7.5 7.1 7.2 7.3 7.2 7.2 7.2 7.0 6.6 6.3 6.3 6.3 6.1 6.1 6.1 6.0 5.5 5.1 5.1 5.1 5.1 5.1 5.2 5.0 4.7 4.5 4.5 4.6 4.8
6.7 6.7 6.7 6.4 6.0 6.3 6.0 5.9 6.0 6.2 6.4 6.7 6.7 6.5 4.9 5.7 6.3 7.1 7.0 6.7 6.8 6.7 6.5 6.3 6.3 6.1 6.0 6.0 6.0 5.9 5.5 4.4 4.5 4.9 4.9 4.8 4.9 4.8 4.8 5.0 4.9 4.7 4.8 4.7
6.7 6.8 6.8 6.7 6.3 6.1 6.0 6.2 6.5 6.5 6.7 7.0 7.0 6.3 6.0 5.9 6.1 6.8 6.7 6.5 6.4 6.4 6.4 6.2 6.0 6.1 6.0 5.8 5.5 5.4 5.4 4.8 5.1 5.1 5.0 4.8 4.9 4.9 5.0 4.9 4.8 4.8 4.9 5.0
Wind_Speed
3 3 8 9 9 8 4 5 9 6 7 2 4 4 3 11 19 20 13 10 13 15 11 16 23 20 13 6 9 9 8 7 5 2 2 1 3 2 2 3 5 3 10 13
4 8 12 5 7 8 9 10 8 8 7 4 10 11 11 9 8 17 16 11 11 11 15 25 23 27 11 7 11 7 8 7 5 3 2 2 2 3 3 2 5 6 4 5
7 10 3 8 10 9 8 5 5 8 2 1 6 7 5 4 5 12 10 10 4 10 16 17 19 24 11 7 6 9 7 7 6 4 2 2 1 2 3 2 3 3 7 10
7 14 16 13 9 7 5 10 7 6 3 4 7 4 2 5 6 7 10 11 13 12 13 18 19 12 7 8 8 6 6 7 5 4 3 2 2 1 2 3 3 4 5 6
9 4 3 6 9 7 10 6 7 3 2 3 6 5 6 3 12 15 16 17 10 12 4 10 12 11 10 8 4 7 6 7 6 5 5 3 2 3 3 4 5 6 5 6
11 9 4 7 12 9 5 1 7 6 3 4 5 5 5 2 5 3 9 18 10 14 8 9 7 5 5 4 7 10 8 5 6 6 4 4 2 4 3 3 3 4 3 4
7 12 9 9 8 4 4 6 3 4 4 6 4 3 7 5 2 3 8 10 13 14 12 9 9 12 11 11 11 9 8 7 6 6 5 3 2 2 4 3 3 4 2 2
4 8 8 3 9 8 5 9 6 5 4 6 5 3 5 7 7 8 7 7 16 13 11 11 12 11 12 12 10 9 7 7 6 6 5 4 3 0 1 4 4 3 2 1
6 8 3 7 6 8 5 3 7 6 2 3 3 3 7 8 5 16 10 15 12 7 7 8 8 11 10 9 9 9 8 7 7 6 5 5 3 4 5 6 5 3 3 3
8 6 12 19 4 6 11 5 2 3 2 5 5 4 5 5 5 14 14 14 14 13 8 13 9 8 10 9 7 7 7 7 6 6 5 4 3 5 5 5 6 6 5 5
7 5 18 2 5 5 2 1 5 5 5 5 2 6 6 10 4 11 13 13 18 12 3 11 9 9 10 9 7 8 7 7 6 5 5 5 3 4 5 5 5 5 5 5
11 6 8 12 7 4 7 9 6 5 6 3 5 5 5 3 10 12 10 14 17 13 8 5 7 8 10 9 7 6 6 7 6 6 5 5 4 3 5 5 5 5 6 6
7 4 2 10 7 5 2 5 5 4 4 6 5 6 2 2 6 3 9 7 11 13 11 9 4 6 8 7 7 7 6 6 6 6 6 5 3 3 4 5 5 6 6 6
7 3 7 10 8 3 4 6 3 6 4 4 6 6 5 7 5 8 6 7 5 4 2 3 4 8 6 8 8 7 6 6 6 6 6 6 5 4 4 5 5 6 6 7
4 4 5 6 5 2 1 4 9 7 6 6 6 11 14 16 9 8 8 8 10 12 5 5 7 9 6 6 6 5 6 7 7 6 6 5 3 5 6 6 6 5 6 6
4 3 1 3 3 5 2 7 8 7 6 3 9 5 6 10 10 6 9 11 10 6 6 8 13 6 7 7 5 7 2 6 6 7 7 6 6 6 6 7 6 6 6 8
3 2 3 3 4 5 3 3 3 4 5 8 4 7 12 14 15 15 11 13 17 12 10 13 7 7 7 5 5 6 5 5 2 4 6 7 8 7 8 9 9 8 8 8
1 3 2 3 4 3 7 4 5 5 5 1 3 13 12 13 9 8 8 11 11 13 13 11 7 6 5 4 5 3 5 4 3 4 6 5 8 10 10 11 10 8 8 8
3 3 2 3 3 4 7 3 1 2 5 1 9 14 15 11 8 6 2 8 10 10 8 10 9 7 5 6 4 6 6 4 4 2 6 7 11 10 11 11 10 8 9 7
5 5 3 2 2 4 7 6 7 3 4 4 5 17 20 10 4 5 7 10 12 9 8 8 8 7 7 4 6 8 6 6 6 6 6 9 11 12 11 11 10 9 9 8
3 1 5 2 4 5 9 14 8 5 7 4 10 10 6 4 2 14 11 11 10 10 9 9 9 7 5 6 7 7 6 6 5 6 8 10 9 12 11 11 9 9 9 9
5 4 4 2 1 6 16 4 4 5 7 8 4 6 9 15 16 14 14 13 11 11 9 8 6 6 7 8 6 6 7 5 7 9 10 10 10 8 8 12 8 9 9 10
1 3 4 4 3 1 4 4 3 6 7 12 13 5 17 15 14 14 12 13 11 10 8 7 8 9 8 8 6 7 5 6 9 11 11 11 12 9 10 8 9 7 7 7
4 1 2 3 5 2 6 1 3 12 15 15 18 17 10 16 12 13 12 10 10 8 8 8 9 9 8 7 7 7 6 7 11 11 11 10 10 10 10 5 6 6 5 5
3 1 1 3 3 1 7 6 6 8 9 12 13 16 4 9 6 6 9 9 8 7 7 7 8 8 8 7 7 7 8 10 11 10 9 9 8 9 9 6 6 5 4 3
1 2 2 3 4 4 3 2 5 13 12 13 16 12 9 10 8 7 9 8 7 7 8 8 6 9 8 8 9 8 8 10 10 9 8 7 7 6 6 7 7 13 8 10
Wind_Direction
289 84 231 209 204 235 250 195 246 257 252 36 260 262 157 142 134 148 172 201 161 191 102 65 24 336 336 193 172 178 172 174 148 154 152 189 238 257 237 212 232 183 213 191
340 253 238 215 227 237 260 266 235 289 262 132 276 284 77 101 155 164 172 213 161 156 143 108 133 252 226 269 190 160 161 157 162 160 167 149 162 260 262 247 246 232 246 237
195 240 348 217 263 256 258 211 250 239 352 312 18 323 110 158 207 176 203 213 201 204 146 146 163 228 191 219 271 166 160 158 153 161 111 67 39 346 337 310 302 241 205 219
244 258 250 259 246 218 240 252 248 289 333 229 135 259 82 152 172 207 183 215 236 224 166 160 173 226 238 230 254 132 145 139 140 146 109 145 200 252 253 264 258 283 262 230
241 288 278 256 246 192 227 233 239 198 147 62 324 65 265 180 168 209 203 215 233 229 188 165 192 206 213 203 218 127 132 129 130 120 123 149 189 222 253 266 279 281 263 224
254 281 268 260 284 251 234 134 41 36 73 13 255 137 285 170 286 197 159 192 196 205 193 205 208 202 215 253 139 132 133 129 130 130 141 112 54 336 319 293 286 283 263 237
312 282 282 264 290 299 110 66 355 350 12 230 308 91 236 269 19 161 224 166 161 162 171 190 195 203 190 147 133 138 139 142 156 144 119 101 44 13 295 311 330 332 291 240
200 313 231 243 204 197 193 151 155 198 199 255 318 258 250 268 238 284 146 164 132 150 162 150 151 134 131 131 139 145 144 139 165 153 132 108 53 356 299 43 14 340 316 296
181 258 256 306 310 161 234 177 191 135 85 55 247 278 303 319 323 59 48 142 139 150 128 129 118 125 139 144 145 148 150 155 158 158 132 103 80 46 41 36 67 27 6 324
221 277 272 277 329 266 171 164 84 17 163 268 293 253 222 242 181 92 70 317 56 7 350 139 135 137 146 148 161 140 148 152 156 150 126 118 99 75 49 49 38 40 9 23
167 158 268 49 193 225 63 171 68 117 143 173 224 269 224 211 41 94 105 145 144 153 273 314 144 147 148 147 149 146 148 138 140 148 131 134 123 101 75 60 39 41 32 21
203 171 232 236 246 210 191 214 156 130 254 224 152 257 272 137 150 120 135 142 155 165 119 8 263 165 151 149 156 156 153 147 158 157 148 162 145 130 89 68 62 56 39 38
187 204 265 303 344 359 190 189 167 115 83 205 137 252 62 2 65 70 158 130 157 170 152 136 329 233 159 145 156 158 168 160 155 155 162 180 172 140 105 91 70 63 61 50
98 120 175 223 214 164 340 323 235 143 122 203 204 163 215 225 138 132 136 106 96 1 203 257 341 250 171 153 166 166 171 170 165 158 179 183 190 177 141 107 91 76 69 71
91 175 198 179 200 197 206 308 307 213 200 154 225 190 193 193 165 172 167 146 173 191 249 217 284 229 164 169 162 167 194 178 169 159 155 168 155 131 123 102 95 87 80 77
1 271 253 307 355 29 336 324 299 283 281 83 129 238 183 125 134 154 180 159 189 160 213 246 235 97 69 65 61 51 335 189 178 168 161 146 133 121 110 99 93 89 69 68
56 87 63 280 338 15 350 265 283 309 297 133 174 203 155 137 158 185 184 184 185 193 193 139 91 80 78 63 32 48 21 7 26 214 165 150 141 115 104 101 88 79 73 69
83 97 107 203 41 227 239 253 258 249 319 280 113 137 138 146 157 166 209 184 174 158 132 111 104 88 56 40 38 16 9 356 356 225 167 142 120 119 113 104 96 81 76 67
121 117 80 142 181 284 330 306 276 154 279 119 123 110 122 124 106 53 53 162 141 114 111 111 112 105 76 41 4 48 30 26 18 324 125 120 125 119 114 105 97 88 84 68
95 100 128 125 153 208 228 290 252 145 257 161 169 147 151 160 123 164 110 109 97 95 92 99 85 78 68 28 45 58 45 43 30 39 87 106 119 116 112 104 97 92 87 80
339 334 186 199 212 285 345 325 326 146 247 189 162 151 141 98 101 120 116 89 85 91 89 80 74 75 67 54 64 63 55 44 26 58 65 78 85 102 102 100 94 97 94 90
205 169 204 127 192 270 351 6 61 280 343 358 73 121 112 113 109 117 117 117 110 97 86 81 81 67 49 50 66 76 65 36 61 68 71 73 77 85 93 101 92 93 99 94
7 177 174 159 164 185 306 129 305 58 59 39 46 20 123 116 117 115 112 101 92 95 99 95 86 70 53 53 59 81 64 78 80 79 76 77 77 79 78 86 100 93 91 96
333 320 107 112 12 34 47 231 66 83 82 78 65 36 324 108 115 119 118 117 113 111 106 99 88 83 75 72 77 78 79 89 91 88 85 80 83 80 80 69 84 88 87 98
204 33 359 56 40 244 46 42 62 105 108 111 103 112 174 105 70 92 95 91 91 91 94 93 102 100 94 90 82 82 80 88 86 81 79 82 84 85 82 63 61 74 43 102
45 169 127 184 250 141 246 12 98 89 86 91 100 94 82 89 94 92 91 99 108 107 110 104 107 110 106 103 99 100 99 105 108 103 99 97 98 87 86 93 75 47 62 74